Provo, UT

1:35 PM MDT on September 25, 2017 (GMT -0600)
Provo Municipal

Weather History for KPVU - June, 2012

Change the Weather History Date:

Monday, June 4, 2012

  Actual Average Record
Temperature  
Mean Temperature 76 °F -  
Max Temperature 93 °F 74 °F 93 °F (2012)
Min Temperature 60 °F 48 °F 41 °F (2011)
Cooling Degree Days 12    
Growing Degree Days 26 (Base 50)    
Moisture  
Dew Point 41 °F    
Average Humidity 34    
Maximum Humidity 59    
Minimum Humidity 12    
Precipitation  
Precipitation 0.00 in - - ()
Sea Level Pressure  
Sea Level Pressure 29.87 in    
Wind  
Wind Speed 5 mph (SSE)    
Max Wind Speed 16 mph    
Max Gust Speed 30 mph    
Visibility 11 miles    
Events      
Averages and records for this station are not official NWS values.
T = Trace of Precipitation, MM = Missing Value Source: NWS Daily Summary

Daily Weather History Graph

Daily Weather History Graph

Search for Another Location

Airport or City:

Trip Planner

Search our weather history database for the weather conditions in past years. The results will help you decide how hot, cold, wet, or windy it might be!

Date:

Astronomy

Jun. 04, 2012 Rise Set
Actual Time 5:58 AM MDT 8:52 PM MDT
Civil Twilight 5:25 AM MDT 9:25 PM MDT
Nautical Twilight 4:44 AM MDT 10:06 PM MDT
Astronomical Twilight 3:57 AM MDT 10:54 PM MDT
Moon 9:25 PM MDT (6/4) 6:08 AM MDT (6/4)
Length of Visible Light 15h 59m
Length of Day
14h 54m
Full, 100% of the Moon is Illuminated
Jun 4
Full
Jun 11
Last Quarter
Jun 19
New
Jun 26
First Quarter
Jul 3
Full

Hourly Weather History & Observations

Time (MDT) Temp. Dew Point Humidity Pressure Visibility Wind Dir Wind Speed Gust Speed Precip Events Conditions
12:15 AM 66.2 °F 46.4 °F 49% 29.89 in 10.0 mi Calm Calm - N/A   Clear
12:35 AM 69.8 °F 44.6 °F 40% 29.89 in 10.0 mi Calm Calm - N/A   Clear
12:55 AM 71.6 °F 42.8 °F 35% 29.90 in 10.0 mi SE 9.2 mph 29.9 mph N/A   Clear
1:15 AM 69.8 °F 42.8 °F 38% 29.91 in 10.0 mi East 9.2 mph - N/A   Clear
1:35 AM 68.0 °F 42.8 °F 40% 29.91 in 10.0 mi ENE 6.9 mph - N/A   Clear
1:55 AM 66.2 °F 44.6 °F 46% 29.91 in 10.0 mi East 3.5 mph - N/A   Clear
2:15 AM 66.2 °F 42.8 °F 43% 29.91 in 10.0 mi SSE 8.1 mph - N/A   Clear
2:35 AM 68.0 °F 44.6 °F 43% 29.92 in 10.0 mi Calm Calm - N/A   Clear
2:55 AM 66.2 °F 42.8 °F 43% 29.92 in 10.0 mi SE 3.5 mph - N/A   Clear
3:15 AM 66.2 °F 42.8 °F 43% 29.92 in 10.0 mi SE 12.7 mph - N/A   Clear
3:35 AM 68.0 °F 39.2 °F 35% 29.92 in 10.0 mi East 8.1 mph - N/A   Clear
4:15 AM 64.4 °F 39.2 °F 40% 29.92 in 10.0 mi Calm Calm - N/A   Clear
4:35 AM 64.4 °F 39.2 °F 40% 29.92 in 10.0 mi Calm Calm - N/A   Clear
5:15 AM 64.4 °F 42.8 °F 45% 29.93 in 10.0 mi ESE 6.9 mph - N/A   Clear
5:35 AM 62.6 °F 42.8 °F 48% 29.94 in 10.0 mi SE 8.1 mph - N/A   Clear
6:15 AM 62.6 °F 41.0 °F 45% 29.95 in 10.0 mi Calm Calm - N/A   Clear
6:48 AM 60.8 °F 46.4 °F 59% 29.95 in 15.0 mi SSE 5.8 mph - N/A   Partly Cloudy
8:55 AM 75.2 °F 46.4 °F 36% 29.95 in 15.0 mi SE 4.6 mph - N/A   Partly Cloudy
9:50 AM 78.8 °F 46.4 °F 32% 29.95 in 15.0 mi East 5.8 mph - N/A   Partly Cloudy
11:52 AM 84.2 °F 35.6 °F 18% 29.91 in 15.0 mi Calm Calm - N/A   Partly Cloudy
12:58 PM 87.8 °F 37.4 °F 17% 29.88 in 15.0 mi West 5.8 mph - N/A   Scattered Clouds
1:50 PM 89.6 °F 35.6 °F 15% 29.86 in 15.0 mi Variable 5.8 mph - N/A   Scattered Clouds
3:50 PM 91.4 °F 33.8 °F 13% 29.80 in 15.0 mi Variable 5.8 mph - N/A   Scattered Clouds
4:50 PM 93.2 °F 33.8 °F 12% 29.76 in 15.0 mi Variable 4.6 mph - N/A   Scattered Clouds
7:50 PM 82.4 °F 51.8 °F 35% 29.70 in 15.0 mi SSW 16.1 mph 23.0 mph N/A   Scattered Clouds
9:15 PM 78.8 °F 46.4 °F 32% 29.73 in 10.0 mi South 11.5 mph - N/A   Clear
9:35 PM 78.8 °F 37.4 °F 23% 29.75 in 10.0 mi SE 10.4 mph - N/A   Clear
9:55 PM 75.2 °F 37.4 °F 25% 29.76 in 10.0 mi SSE 10.4 mph - N/A   Clear
10:35 PM 73.4 °F 37.4 °F 27% 29.78 in 10.0 mi South 10.4 mph - N/A   Clear
10:55 PM 75.2 °F 33.8 °F 22% 29.78 in 10.0 mi South 15.0 mph 18.4 mph N/A   Clear
11:15 PM 75.2 °F 35.6 °F 24% 29.78 in 10.0 mi South 10.4 mph - N/A   Clear
11:35 PM 73.4 °F 44.6 °F 36% 29.78 in 10.0 mi SSW 11.5 mph - N/A   Clear
11:55 PM 75.2 °F 37.4 °F 25% 29.78 in 10.0 mi South 13.8 mph - N/A   Clear